Regional Weather Roundup
Issued by NWS

Home | Current Version | Previous Version | Text Only | Print | Product List | Glossary On
Versions: 1 2 3 4 5 6 7 8 9 10 11 12 13 14 15 16 17 18 19 20 21 22 23 24 25 26 27 28 29 30 31 32 33 34 35 36 37 38 39 40 41 42 43 44 45 46 47 48 49 50
000
ASUS43 KOAX 231710
RWRNE

WEATHER ROUNDUP FOR NEBRASKA
NATIONAL WEATHER SERVICE OMAHA NE
1200 PM CDT WED APR 23 2014

NOTES: SATELLITE DATA IS BEING USED TO AUGMENT CLOUD COVER ABOVE
       12000 FEET.
       "FAIR" INDICATES FEW OR NO CLOUDS BELOW 12,000 FEET WITH NO
       SIGNIFICANT WEATHER AND/OR OBSTRUCTIONS TO VISIBILITY.

  * THESE STATIONS DO NOT REPORT WEATHER SUCH AS RAIN...SNOW OR FOG.

NEZ001>004-019>022-054>056-231800-
NEBRASKA PANHANDLE

CITY           SKY/WX    TMP DP  RH WIND       PRES   REMARKS
SCOTTSBLUFF    PTSUNNY   64  30  27 NW25G36   29.63R
ALLIANCE       CLOUDY    62  30  29 NW20      29.59S
CHADRON        CLOUDY    66  28  24 W22G36    29.57R
KIMBALL        CLOUDY    63  29  27 N20       29.63S
SIDNEY         CLOUDY    65  33  30 N22G31    29.64S
$$

NEZ057>060-069>072-079>082-231800-
SOUTHWEST NEBRASKA

CITY           SKY/WX    TMP DP  RH WIND       PRES   REMARKS
NORTH PLATTE   CLOUDY    73  48  41 SW13      29.54F
IMPERIAL       CLOUDY    68  41  37 NW22      29.59R
LEXINGTON      CLOUDY    71  49  45 S20G29    29.59F
MCCOOK         CLOUDY    75  47  36 W14       29.56R
OGALLALA       CLOUDY    65  44  47 NW10      29.60R
$$

NEZ005>010-023>029-035>040-094-231800-
NORTH CENTRAL NEBRASKA

CITY           SKY/WX    TMP DP  RH WIND       PRES   REMARKS
VALENTINE      PTSUNNY   64  42  44 S17       29.51F
AINSWORTH      CLOUDY    67  44  43 S22       29.54F
BROKEN BOW     CLOUDY    66  44  45 S26G37    29.57F
O`NEILL        MOSUNNY   66  37  35 S31G41    29.60R
ORD            PTSUNNY   67  42  40 S28G40    29.58F
THEDFORD       CLOUDY    69  43  38 SW13      29.57R
$$

NEZ041-046>049-061>064-073>077-083>087-231800-
SOUTH CENTRAL NEBRASKA

CITY           SKY/WX    TMP DP  RH WIND       PRES   REMARKS
GRAND ISLAND   PTSUNNY   65  43  44 S33G43    29.65F
AURORA         PTSUNNY   64  43  46 S30G36    29.67S
HASTINGS       PTSUNNY   65  42  43 S28G36    29.64F
HEBRON         TSTM      60  43  53 S23G32    29.72F
HOLDREGE       PTSUNNY   70  46  42 S30G38    29.58F
KEARNEY *      CLOUDY    66  45  45 S25G39    29.61F
YORK           PTSUNNY   63  41  45 S31G44    29.69F
$$

NEZ011>018-030>034-042>045-231800-
NORTHEAST NEBRASKA

CITY           SKY/WX    TMP DP  RH WIND       PRES   REMARKS
NORFOLK        PTSUNNY   60  40  47 SE32G43   29.67F
ALBION         PTSUNNY   64  39  40 S35G43    29.65F
BLAIR          CLOUDY    51  42  73 SE24G35   29.79F
COLUMBUS *     PTSUNNY   61  41  48 SE30G39   29.72F
FREMONT        CLOUDY    55  42  60 SE29G38   29.77F
TEKAMAH        CLOUDY    54  44  69 SE33G40   29.80F
$$

NEZ050>053-065>068-078-088>093-231800-
SOUTHEAST NEBRASKA

CITY           SKY/WX    TMP DP  RH WIND       PRES   REMARKS
LINCOLN        PTSUNNY   56  44  64 SE22      29.76F
OMAHA EPPLEY   TSTM      50  43  77 SE28G33   29.83F
BEATRICE       LGT RAIN  59  42  54 SE22G35   29.78F
FALLS CITY     CLOUDY    59  45  59 SE17G23   29.86F
NEBRASKA CITY  CLOUDY    54  43  66 SE20G31   29.85F
PLATTSMOUTH    CLOUDY    52  40  65 SE22G30   29.83F
$$

NEZ044-045-051>053-067-231800-
OMAHA AREA

CITY           SKY/WX    TMP DP  RH WIND       PRES   REMARKS
OMAHA EPPLEY   TSTM      50  43  77 SE28G33   29.83F
BLAIR          CLOUDY    51  42  73 SE24G35   29.79F
FREMONT        CLOUDY    55  42  60 SE29G38   29.77F
MILLARD        LGT RAIN  50  42  74 SE16G25   29.82F
OFFUTT AFB     TSTM      52  45  76 SE20G28   29.83F
PLATTSMOUTH    CLOUDY    52  40  65 SE22G30   29.83F
WAHOO          PTSUNNY   54  42  65 SE30G41   29.77F
$$



USA.gov is the U.S. government's official web portal to all federal, state and local government web resources and services.